Regional Weather Roundup
Issued by NWS Green Bay, WI

Home | Current Version | Previous Version | Graphics & Text | Print | Product List | Glossary Off
Versions: 1 2 3 4 5 6 7 8 9 10 11 12 13 14 15 16 17 18 19 20 21 22 23 24 25 26 27 28 29 30 31 32 33 34 35 36 37 38 39 40 41 42 43 44 45 46 47 48 49 50

000
ASUS43 KGRB 221510
RWRGRB

NORTH-CENTRAL AND NORTHEAST WISCONSIN REGIONAL WEATHER ROUNDUP
NATIONAL WEATHER SERVICE GREEN BAY WI
1000 AM CDT TUE JUL 22 2014

WIZ005-009-010>012-018-019-221600-
NORTH CENTRAL WISCONSIN

CITY           SKY/WX    TMP DP  RH WIND       PRES   REMARKS
IRONWOOD       CLOUDY    73  64  73 W21       29.81R
MANITOWISH WTR MOSUNNY   74  66  75 W18G25    29.86S
ARBOR VITAE    PTSUNNY   80  67  65 NW16G30   29.87R
EAGLE RIVER    PTSUNNY   78  68  71 W15G29    29.82R
LAND O LAKES   PTSUNNY   77  64  65 W17G28    29.84R
RHINELANDER    PTSUNNY   79  71  76 W14G26    29.86R
PHILLIPS       PTSUNNY   73  65  74 W9        29.90R
ANTIGO         CLOUDY    76  71  84 W15G22    29.88S
TOMAHAWK       MOSUNNY   79  70  73 W9G16     29.87S
MERRILL        CLOUDY    80  74  83 W13G18    29.86S
$$

WIZ013-073-221600-
NORTHEAST WISCONSIN

CITY           SKY/WX    TMP DP  RH WIND       PRES   REMARKS
IRON MOUNTAIN  CLOUDY    77  69  76 S10       29.80F
MARINETTE      MOSUNNY   79  70  73 SW13      29.82F
OCONTO         CLOUDY    81  71  71 SW16G24   29.85F
$$

WIZ017-030-035>037-045-221600-
CENTRAL WISCONSIN

CITY           SKY/WX    TMP DP  RH WIND       PRES   REMARKS
MEDFORD        PTSUNNY   80  73  80 W15G24    29.89S
WAUSAU         CLOUDY    79  72  79 SW13      29.86F
MOSINEE        CLOUDY    77  73  88 SW9G16    29.89F
MARSHFIELD     PTSUNNY   80  73  79 W12G21    29.89S
WISC RAPIDS    CLOUDY    82  71  69 SW13G18   29.91S
STEVENS POINT  CLOUDY    77  69  76 SW13G21   29.89F
WAUPACA        CLOUDY    82  70  68 SW10      29.89S
SHAWANO        CLOUDY    79  70  73 SW9       29.87F
CLINTONVILLE   CLOUDY    79  68  69 SW10G16   29.87F
$$

WIZ038-039-048-051-221600-
FOX VALLEY

CITY           SKY/WX    TMP DP  RH WIND       PRES   REMARKS
NWS GREEN BAY  MOSUNNY   79  70  74 SW14      29.88F
APPLETON       CLOUDY    79  66  65 SW15G21   29.90S
OSHKOSH        CLOUDY    79  69  71 SW15G25   29.90S
FOND DU LAC    MOSUNNY   81  68  64 SW17G25   29.93R
$$

WIZ022-050-052-221600-
EAST CENTRAL WISCONSIN

CITY           SKY/WX    TMP DP  RH WIND       PRES   REMARKS
STURGEON BAY   MOSUNNY   73  64  73 S9        29.87F
MANITOWOC      PTSUNNY   79  69  71 S10       29.90F
SHEBOYGAN      SUNNY     81  68  64 SW17G28   29.92F
$$

LMZ563-521-522-541>543-221600-
LAKESHORE

STATION/POSITION TIME  TEMP    WIND        PRES    VSBY  WAVE
                       AIR SEA DIR/SP/G                  HT/PER
                 (UTC) (F)     (DEG/KT/KT) (MB)    (MI)  (FT/S)
SHEBOYGAN LKSHOR 1500   69     170/ 19/ 20 1013.1F
KEWAUNEE LKSHORE 1500   56     180/ 13/ 15 1012.9S
NORTHPORT PIER   1500   68     160/ 13/ 22 1010.8F
N MID LAKE BUOY  1500   63 57  200/ 21/ 25 1010.2F         5/ 5
CHAMBERS ISLAND  1500   74     170/  7/ 16 1010.8S
MENOMINEE LKSHOR 1500   77     190/ 11/ 15 1011.0F
$$


USA.gov is the U.S. government's official web portal to all federal, state and local government web resources and services.